TimeEDT,TemperatureF,Dew PointF,Humidity,Sea Level PressureIn,VisibilityMPH,Wind Direction,Wind SpeedMPH,Gust SpeedMPH,PrecipitationIn,Events,Conditions,WindDirDegrees,DateUTC
12:53 AM,75.9,66.0,71,29.91,10.0,WNW,4.6,-,N/A,,Clear,290,2013-09-13 04:53:00
1:53 AM,73.9,66.0,76,29.90,10.0,WNW,6.9,-,N/A,,Clear,300,2013-09-13 05:53:00
2:53 AM,72.0,64.9,78,29.89,10.0,Calm,Calm,-,N/A,,Clear,0,2013-09-13 06:53:00
3:53 AM,73.0,64.9,76,29.87,10.0,WNW,5.8,-,N/A,,Clear,290,2013-09-13 07:53:00
4:53 AM,72.0,66.9,84,29.88,10.0,WNW,3.5,-,N/A,,Clear,290,2013-09-13 08:53:00
5:53 AM,72.0,66.0,81,29.88,10.0,Calm,Calm,-,N/A,,Clear,0,2013-09-13 09:53:00
6:53 AM,71.1,66.0,84,29.88,10.0,Calm,Calm,-,N/A,,Clear,0,2013-09-13 10:53:00
7:53 AM,70.0,66.9,90,29.89,10.0,NNW,3.5,-,N/A,,Clear,330,2013-09-13 11:53:00
8:53 AM,73.9,66.9,79,29.89,10.0,Variable,3.5,-,N/A,,Clear,0,2013-09-13 12:53:00
9:53 AM,75.9,66.9,74,29.90,10.0,NNW,6.9,-,N/A,,Clear,340,2013-09-13 13:53:00
10:53 AM,79.0,66.0,64,29.90,10.0,NW,6.9,-,N/A,,Clear,320,2013-09-13 14:53:00
11:53 AM,82.0,64.0,54,29.90,10.0,Variable,6.9,-,N/A,,Clear,0,2013-09-13 15:53:00
12:53 PM,82.0,63.0,52,29.89,10.0,NW,9.2,-,N/A,,Clear,320,2013-09-13 16:53:00
1:53 PM,84.9,62.1,46,29.87,10.0,NW,11.5,-,N/A,,Clear,310,2013-09-13 17:53:00
2:53 PM,84.9,62.1,46,29.85,10.0,WNW,8.1,-,N/A,,Clear,290,2013-09-13 18:53:00
3:53 PM,84.9,61.0,44,29.83,10.0,West,10.4,-,N/A,,Clear,260,2013-09-13 19:53:00
4:53 PM,86.0,60.1,41,29.82,10.0,WNW,10.4,-,N/A,,Scattered Clouds,300,2013-09-13 20:53:00
5:53 PM,82.9,61.0,47,29.81,10.0,WNW,9.2,-,N/A,,Scattered Clouds,300,2013-09-13 21:53:00
6:53 PM,81.0,60.1,49,29.83,10.0,NNW,9.2,-,N/A,,Clear,340,2013-09-13 22:53:00
7:53 PM,75.0,59.0,57,29.84,10.0,NNW,5.8,-,N/A,,Clear,330,2013-09-13 23:53:00
8:53 PM,73.0,57.0,57,29.87,10.0,NNW,3.5,-,N/A,,Clear,330,2013-09-14 00:53:00
9:53 PM,70.0,55.9,61,29.88,10.0,North,3.5,-,N/A,,Clear,350,2013-09-14 01:53:00
10:53 PM,68.0,54.0,61,29.90,10.0,NNW,3.5,-,N/A,,Clear,340,2013-09-14 02:53:00
11:53 PM,66.0,54.0,65,29.90,10.0,North,4.6,-,N/A,,Clear,10,2013-09-14 03:53:00